{"data":{"norad_id":58468,"epoch":"2026-05-24T13:02:13.916832Z","epoch_age_seconds":117747,"freshness":"FRESH","line1":"1 58468U 23185G   26144.54321663  .00124146  00000+0  77189-3 0  9999","line2":"2 58468  97.3295 228.0597 0004915 233.9624 126.1186 15.76598859138841","mean_motion":15.76598859,"eccentricity":0.0004915,"inclination_deg":97.3295,"raan_deg":228.0597,"arg_perigee_deg":233.9624,"mean_anomaly_deg":126.1186,"bstar":0.00077189,"rev_number":13884,"period_min":91.335851968925,"perigee_km":336.78328155907,"apogee_km":343.38729406799,"semimajor_km":6718.2222878135,"source":"CELESTRAK","updated_at":"2026-05-25T13:38:00.765955Z"}}